| time (UTC) | temp F | wind direction | speed MPH | gust MPH | rain 1hr in | rain 24hr in | rain mn in | humidity % | barometer mb |
| 20260506104034 | 52 | 50 | 2.0 | 3.0 | 0.00 | 0.00 | 0.00 | 53 | 1015.2 |
| 20260506103034 | 52 | 38 | 2.0 | 5.0 | 0.00 | 0.00 | 0.00 | 55 | 1015.2 |
| 20260506102034 | 53 | 61 | 2.0 | 5.0 | 0.00 | 0.00 | 0.00 | 56 | 1015.2 |
| 20260506101034 | 53 | 27 | 2.0 | 5.0 | 0.00 | 0.00 | 0.00 | 53 | 1015.3 |
| 20260506100031 | 52 | 35 | 2.0 | 5.0 | 0.00 | 0.00 | 0.00 | 53 | 1015.3 |
| 20260506095034 | 52 | 58 | 2.0 | 5.0 | 0.00 | 0.00 | 0.00 | 55 | 1015.4 |
| 20260506094035 | 52 | 47 | 2.0 | 5.0 | 0.00 | 0.00 | 0.00 | 55 | 1015.5 |
| 20260506092035 | 52 | 46 | 2.0 | 5.0 | 0.00 | 0.00 | 0.00 | 54 | 1015.5 |
| 20260506091034 | 51 | 23 | 2.0 | 5.0 | 0.00 | 0.00 | 0.00 | 57 | 1015.7 |
| 20260506090031 | 51 | 52 | 2.0 | 3.0 | 0.00 | 0.00 | 0.00 | 60 | 1015.8 |
| 20260506085034 | 51 | 24 | 2.0 | 3.0 | 0.00 | 0.00 | 0.00 | 55 | 1015.6 |
| 20260506084034 | 51 | 41 | 2.0 | 5.0 | 0.00 | 0.00 | 0.00 | 57 | 1015.8 |
| 20260506083035 | 53 | 37 | 2.0 | 3.0 | 0.00 | 0.00 | 0.00 | 53 | 1015.9 |
| 20260506082034 | 51 | 73 | 1.0 | 2.0 | 0.00 | 0.00 | 0.00 | 55 | 1015.8 |
| 20260506081034 | 50 | 86 | 1.0 | 3.0 | 0.00 | 0.00 | 0.00 | 57 | 1015.9 |
| 20260506073033 | 48 | 52 | 2.0 | 5.0 | 0.00 | 0.00 | 0.00 | 60 | 1016.0 |
| 20260506072032 | 48 | 95 | 1.0 | 3.0 | 0.00 | 0.00 | 0.00 | 59 | 1016.1 |
| 20260506071035 | 48 | 54 | 1.0 | 5.0 | 0.00 | 0.00 | 0.00 | 60 | 1016.1 |
| 20260506062033 | 48 | 30 | 1.0 | 5.0 | 0.00 | 0.00 | 0.00 | 59 | 1015.8 |
| 20260506061033 | 48 | 50 | 2.0 | 7.0 | 0.00 | 0.00 | 0.00 | 59 | 1015.8 |
| 20260506051034 | 47 | 127 | 1.0 | 6.0 | 0.00 | 0.00 | 0.00 | 67 | 1015.8 |
| 20260506045033 | 47 | 76 | 2.0 | 5.0 | 0.00 | 0.00 | 0.00 | 58 | 1015.9 |
| 20260506044033 | 46 | 59 | 1.0 | 3.0 | 0.00 | 0.00 | 0.00 | 61 | 1015.9 |
| 20260506042035 | 46 | 93 | 1.0 | 3.0 | 0.00 | 0.00 | 0.00 | 63 | 1016.1 |
| 20260506041034 | 46 | 91 | 2.0 | 5.0 | 0.00 | 0.00 | 0.00 | 66 | 1016.2 |
| 20260506040032 | 47 | 73 | 2.0 | 8.0 | 0.00 | 0.00 | 0.00 | 66 | 1016.3 |
| 20260506035033 | 47 | 84 | 4.0 | 8.0 | 0.00 | 0.00 | 0.00 | 65 | 1016.2 |
| 20260506034033 | 46 | 38 | 2.0 | 5.0 | 0.00 | 0.00 | 0.00 | 61 | 1016.3 |
| 20260506033033 | 47 | 42 | 2.0 | 6.0 | 0.00 | 0.00 | 0.00 | 64 | 1016.3 |
| 20260506032032 | 47 | 82 | 3.0 | 7.0 | 0.00 | 0.00 | 0.00 | 62 | 1016.3 |
| 20260506031034 | 47 | 51 | 2.0 | 8.0 | 0.00 | 0.00 | 0.00 | 65 | 1016.3 |
| 20260506025032 | 47 | 53 | 3.0 | 9.0 | 0.00 | 0.00 | 0.00 | 64 | 1016.5 |
| 20260506024033 | 47 | 112 | 6.0 | 13.0 | 0.00 | 0.00 | 0.00 | 60 | 1016.2 |
| 20260506023033 | 47 | 61 | 5.0 | 10.0 | 0.00 | 0.00 | 0.00 | 64 | 1016.3 |
| 20260506022033 | 47 | 51 | 5.0 | 10.0 | 0.00 | 0.00 | 0.00 | 64 | 1016.4 |
| 20260506021032 | 47 | 84 | 5.0 | 8.0 | 0.00 | 0.00 | 0.00 | 66 | 1016.4 |
| 20260506020031 | 47 | 64 | 5.0 | 8.0 | 0.00 | 0.00 | 0.00 | 65 | 1016.5 |
| 20260506015033 | 47 | 65 | 3.0 | 7.0 | 0.00 | 0.00 | 0.00 | 68 | 1016.5 |
| 20260506012033 | 47 | 62 | 3.0 | 6.0 | 0.00 | 0.00 | 0.00 | 66 | 1016.8 |
| 20260506011032 | 47 | 49 | 3.0 | 6.0 | 0.00 | 0.00 | 0.00 | 68 | 1017.0 |
| 20260506010032 | 47 | 38 | 3.0 | 6.0 | 0.00 | 0.00 | 0.00 | 73 | 1016.9 |
| 20260506005032 | 47 | 61 | 3.0 | 6.0 | 0.00 | 0.00 | 0.00 | 73 | 1016.8 |
| 20260506004033 | 48 | 71 | 3.0 | 7.0 | 0.00 | 0.00 | 0.00 | 72 | 1016.9 |
| 20260506002033 | 48 | 64 | 3.0 | 5.0 | 0.00 | 0.00 | 0.00 | 76 | 1016.9 |
| 20260506001033 | 48 | 67 | 2.0 | 6.0 | 0.00 | 0.00 | 0.00 | 77 | 1017.0 |
| 20260506000032 | 48 | 57 | 2.0 | 6.0 | 0.00 | 0.00 | 0.00 | 76 | 1017.2 |
| 20260505235033 | 48 | 76 | 2.0 | 5.0 | 0.00 | 0.00 | 0.00 | 77 | 1017.3 |
| 20260505234033 | 48 | 50 | 3.0 | 6.0 | 0.00 | 0.00 | 0.00 | 76 | 1017.4 |
| 20260505233033 | 48 | 72 | 3.0 | 7.0 | 0.00 | 0.00 | 0.00 | 76 | 1017.6 |
| 20260505232032 | 49 | 71 | 3.0 | 7.0 | 0.00 | 0.00 | 0.00 | 75 | 1017.5 |
| 20260505230031 | 49 | 50 | 3.0 | 9.0 | 0.00 | 0.00 | 0.00 | 75 | 1017.5 |
| 20260505225109 | 49 | 46 | 4.0 | 9.0 | 0.00 | 0.00 | 0.00 | 74 | 1017.5 |
| 20260505223024 | 49 | 82 | 5.0 | 7.0 | 0.00 | 0.00 | 0.00 | 70 | 1017.6 |
| 20260505222024 | 49 | 62 | 4.0 | 8.0 | 0.00 | 0.00 | 0.00 | 71 | 1017.6 |
| 20260505220023 | 50 | 41 | 3.0 | 8.0 | 0.00 | 0.00 | 0.00 | 73 | 1017.6 |
| 20260505215025 | 50 | 338 | 3.0 | 7.0 | 0.00 | 0.00 | 0.00 | 72 | 1017.7 |
| 20260505214025 | 50 | 53 | 4.0 | 7.0 | 0.00 | 0.00 | 0.00 | 71 | 1017.7 |
| 20260505213026 | 50 | 60 | 3.0 | 7.0 | 0.00 | 0.00 | 0.00 | 71 | 1017.8 |
| 20260505212025 | 50 | 69 | 2.0 | 6.0 | 0.00 | 0.00 | 0.00 | 71 | 1017.6 |
| 20260505211026 | 50 | 142 | 3.0 | 6.0 | 0.00 | 0.00 | 0.00 | 70 | 1017.8 |
| 20260505210025 | 50 | 133 | 3.0 | 6.0 | 0.00 | 0.00 | 0.00 | 71 | 1017.8 |
| 20260505205028 | 50 | 208 | 3.0 | 5.0 | 0.00 | 0.00 | 0.00 | 70 | 1017.6 |
| 20260505204024 | 50 | 130 | 3.0 | 6.0 | 0.00 | 0.00 | 0.00 | 70 | 1017.7 |
| 20260505203024 | 50 | 228 | 3.0 | 6.0 | 0.00 | 0.00 | 0.00 | 70 | 1017.7 |
| 20260505202028 | 50 | 232 | 3.0 | 6.0 | 0.00 | 0.00 | 0.00 | 69 | 1017.6 |
| 20260505201025 | 50 | 231 | 3.0 | 6.0 | 0.00 | 0.00 | 0.00 | 68 | 1017.8 |
| 20260505200022 | 50 | 223 | 3.0 | 5.0 | 0.00 | 0.00 | 0.00 | 70 | 1017.6 |
| 20260505195024 | 50 | 207 | 3.0 | 5.0 | 0.00 | 0.00 | 0.00 | 69 | 1017.6 |
| 20260505194024 | 51 | 201 | 2.0 | 5.0 | 0.00 | 0.00 | 0.00 | 69 | 1017.6 |
| 20260505192026 | 52 | 215 | 3.0 | 6.0 | 0.00 | 0.00 | 0.00 | 67 | 1017.6 |
| 20260505191024 | 52 | 190 | 4.0 | 7.0 | 0.00 | 0.00 | 0.00 | 66 | 1017.5 |
| 20260505190022 | 52 | 203 | 5.0 | 7.0 | 0.00 | 0.00 | 0.00 | 66 | 1017.5 |
| 20260505184023 | 53 | 223 | 4.0 | 6.0 | 0.00 | 0.00 | 0.00 | 65 | 1017.6 |
| 20260505183024 | 53 | 243 | 5.0 | 7.0 | 0.00 | 0.00 | 0.00 | 65 | 1017.5 |
| 20260505182025 | 53 | 235 | 5.0 | 7.0 | 0.00 | 0.00 | 0.00 | 64 | 1017.5 |
| 20260505181024 | 54 | 243 | 5.0 | 8.0 | 0.00 | 0.00 | 0.00 | 63 | 1017.5 |
| 20260505175025 | 55 | 206 | 4.0 | 7.0 | 0.00 | 0.00 | 0.00 | 60 | 1017.6 |
| 20260505174024 | 55 | 246 | 4.0 | 7.0 | 0.00 | 0.00 | 0.00 | 60 | 1017.8 |
| 20260505173023 | 55 | 255 | 3.0 | 7.0 | 0.00 | 0.00 | 0.00 | 60 | 1017.7 |
| 20260505172023 | 55 | 240 | 5.0 | 8.0 | 0.00 | 0.00 | 0.00 | 58 | 1017.6 |
| 20260505171022 | 55 | 256 | 5.0 | 8.0 | 0.00 | 0.00 | 0.00 | 60 | 1017.7 |
| 20260505165023 | 55 | 278 | 6.0 | 8.0 | 0.00 | 0.00 | 0.00 | 59 | 1017.8 |
| 20260505164023 | 55 | 286 | 5.0 | 12.0 | 0.00 | 0.00 | 0.00 | 58 | 1017.7 |
| 20260505162024 | 56 | 280 | 6.0 | 9.0 | 0.00 | 0.00 | 0.00 | 59 | 1017.8 |
| 20260505161024 | 55 | 267 | 4.0 | 8.0 | 0.00 | 0.00 | 0.00 | 60 | 1017.6 |
| 20260505153023 | 58 | 264 | 4.0 | 8.0 | 0.00 | 0.00 | 0.00 | 57 | 1017.9 |
| 20260505152023 | 55 | 266 | 4.0 | 8.0 | 0.00 | 0.00 | 0.00 | 60 | 1017.9 |
| 20260505151023 | 57 | 286 | 5.0 | 9.0 | 0.00 | 0.00 | 0.00 | 56 | 1018.0 |
| 20260505125027 | 57 | 213 | 3.0 | 5.0 | 0.00 | 0.00 | 0.00 | 59 | 1018.4 |
| 20260505124023 | 57 | 203 | 2.0 | 6.0 | 0.00 | 0.00 | 0.00 | 58 | 1018.3 |
| 20260505123022 | 56 | 231 | 3.0 | 7.0 | 0.00 | 0.00 | 0.00 | 61 | 1018.4 |
| 20260505122022 | 55 | 211 | 3.0 | 5.0 | 0.00 | 0.00 | 0.00 | 61 | 1018.4 |
| 20260505120021 | 53 | 199 | 2.0 | 5.0 | 0.00 | 0.00 | 0.00 | 66 | 1018.4 |
| 20260505115022 | 53 | 111 | 3.0 | 6.0 | 0.00 | 0.00 | 0.00 | 67 | 1018.4 |
| 20260505114023 | 52 | 48 | 2.0 | 5.0 | 0.00 | 0.00 | 0.00 | 76 | 1018.4 |
| 20260505113023 | 51 | 64 | 3.0 | 6.0 | 0.00 | 0.00 | 0.00 | 78 | 1018.5 |
| 20260505111023 | 51 | 65 | 4.0 | 8.0 | 0.00 | 0.00 | 0.00 | 78 | 1018.7 |